Domov               UVHVVR             MKGP            O straneh              
ZDRAVSTVENO VARSTVO RASTLIN
  MREŽA AGROMET. POSTAJ
 ► PROGNOSTIČNA OBVESTILA
AGROMETEOROLOŠKI PODATKI -
ARSO
OBVLADOVANJE TVEGANJ ZARADI
NEUGODNIH VREMENSKIH RAZMER
  ► NARAVNE NESREČE
  ► SUŠA/MOČA
  ► NAMAKANJE
  ► ŽLED (gozdarstvo)
KARTOGRAFSKI PRIKAZI
SPLETNE POVEZAVE
PROJEKTI IN PUBLIKACIJE

AGROMETEOROLOŠKA MREŽA: VREMENSKE POSTAJE IN FENOLOŠKA OPAZOVANJA

Pregled podatkov za lokacijo Svečina, meteorološka postaja 24393

Pregled senzorjev na lokaciji

ID Ime Zadnja
vrednost
Datum
zadnje
spremembe
Tip
senzorja
922 Omočenost lista (U) 0 U 18.1.2018 19:30 A730WET
923 Temperatura 2 m (°C) 3,54 °C 18.1.2018 19:30 Generic -40 - +60 °C
924 Relativna vlaga 2 m (% RH) 49,23 % RH 18.1.2018 19:30 Generic 0 - 100 %
925 Padavine (mm) 0 mm 18.1.2018 19:30 Generic 0.2 mm

Pregled podatkov zadnjih 24 ur

Zap.
št.
Datum in čas Svečina
Omočenost
lista
Padavine Relativna
vlaga
2
m
Temperatura
2
m
0 18.1.2018 19:30 0 0 49,23 3,54
1 18.1.2018 19:00 0 0 51,21 3,25
2 18.1.2018 18:30 0 0 56,51 2,69
3 18.1.2018 18:00 0 0 55,6 2,86
4 18.1.2018 17:30 0 0 55,95 3,05
5 18.1.2018 17:00 0 0 52,63 3,88
6 18.1.2018 16:30 0 0 47,67 5,3
7 18.1.2018 16:00 0 0 41,81 6,42
8 18.1.2018 15:30 0 0 38,56 6,64
9 18.1.2018 15:00 0 0 39,46 7,01
10 18.1.2018 14:30 0 0 46,45 5,76
11 18.1.2018 14:00 0 0 50,79 5,47
12 18.1.2018 13:30 0 0 53,55 4,84
13 18.1.2018 13:00 0 0 55,19 4,25
14 18.1.2018 12:30 0 0 56,02 3,98
15 18.1.2018 12:00 0 0 55,68 4,22
16 18.1.2018 11:30 0 0 62,08 2,78
17 18.1.2018 11:00 0 0 63,98 2,32
18 18.1.2018 10:30 0 0 64,66 2,1
19 18.1.2018 10:00 0 0 60,59 2,76
20 18.1.2018 09:30 0 0 64,69 1,15
21 18.1.2018 09:00 0 0 69,5 -0,49
22 18.1.2018 08:30 0 0 73,92 -1,54
23 18.1.2018 08:00 0 0 77,02 -2,05
24 18.1.2018 07:30 0 0 69,21 -0,73
25 18.1.2018 07:00 0 0 64,35 0,05
26 18.1.2018 06:30 0 0 64,25 0,15
27 18.1.2018 06:00 0 0 60,56 0,93
28 18.1.2018 05:30 0 0 61,34 1,05
29 18.1.2018 05:00 0 0 60,59 1,27
30 18.1.2018 04:30 0 0 62,17 1,07
31 18.1.2018 04:00 0 0 64,49 0,83
32 18.1.2018 03:30 0 0 64,86 1,03
33 18.1.2018 03:00 0 0 66,18 1,07
34 18.1.2018 02:30 0 0 68,47 0,93
35 18.1.2018 02:00 0 0 66,62 1,1
36 18.1.2018 01:30 0 0 60,27 1,25
37 18.1.2018 01:00 0 0 56,68 1,39
38 18.1.2018 00:30 0 0 54,87 1,49
39 18.1.2018 00:00 0 0 53,92 1,51
40 17.1.2018 23:30 0 0 51,23 1,64
41 17.1.2018 23:00 0 0 49,67 1,51
42 17.1.2018 22:30 0 0 49,6 1,12
43 17.1.2018 22:00 0 0 46,74 1,39
44 17.1.2018 21:30 0 0 44,35 1,66
45 17.1.2018 21:00 0 0 42,42 2,1
© 2011 Ministrstvo za kmetijstvo, gozdarstvo in prehrano. Vse pravice pridržane.